Temperature
25 23 22 22 23 24 25 25 25 27 28 28 26 26 25 25 24 23 22 22 21 21 22 21 21 21 20 20 19 19 19 18 18 18 18 18 18 18 18 18 18 18 18 18
23 22 24 25 25 26 26 25 25 26 28 28 26 25 24 24 24 23 22 22 22 21 21 21 21 20 20 20 19 19 19 18 18 18 18 18 18 18 18 18 18 18 18 18
23 24 26 26 26 26 26 25 26 26 27 26 25 24 23 23 24 23 23 22 22 21 21 21 21 20 20 20 19 19 19 18 18 18 18 18 18 17 17 18 18 18 18 18
24 25 26 26 26 26 25 27 27 27 25 23 24 22 22 22 22 22 22 22 21 21 21 21 21 20 20 20 19 19 19 18 18 18 18 18 18 18 18 18 18 18 17 17
23 25 26 26 27 27 26 27 27 27 25 22 22 22 21 20 21 21 21 21 21 21 21 21 21 20 20 19 19 19 18 18 18 18 18 18 18 18 18 18 17 17 17 17
24 26 26 26 28 28 28 27 25 22 20 21 21 22 21 19 20 20 21 21 21 21 21 21 20 20 20 19 19 18 18 18 18 18 18 18 18 18 17 17 17 17 17 17
24 25 26 27 26 27 27 23 21 22 20 20 20 21 20 20 21 21 21 21 21 21 21 21 20 20 19 19 18 18 18 18 17 17 17 17 17 17 17 17 17 17 17 17
22 23 25 26 26 25 25 22 21 22 21 20 20 20 20 21 21 21 22 21 21 21 21 21 20 20 19 19 18 18 18 17 17 17 17 17 17 17 17 17 17 18 17 17
22 23 26 28 28 26 26 23 21 20 21 20 20 20 20 20 20 21 21 20 20 20 21 20 20 19 19 19 18 18 17 17 17 17 17 17 17 17 17 17 17 17 17 17
23 23 25 27 28 27 26 24 20 20 21 21 20 20 19 20 20 20 20 20 20 20 20 20 20 19 19 18 18 18 18 17 17 17 17 17 17 17 17 17 17 17 17 17
23 22 24 25 27 27 26 25 22 19 19 20 20 20 21 20 20 20 20 20 20 20 20 19 19 19 19 18 18 18 17 17 17 17 17 17 17 16 17 17 17 17 17 17
23 21 22 24 25 27 25 24 21 21 21 19 19 20 22 20 20 20 20 20 20 20 20 20 19 19 18 18 17 17 17 17 17 17 17 17 16 16 16 16 16 16 16 16
23 21 21 23 23 24 25 24 22 19 19 19 20 21 20 19 19 20 21 21 21 20 20 19 19 18 18 18 17 17 17 17 17 17 16 16 16 16 16 16 16 16 16 16
23 20 21 22 22 24 25 25 23 20 19 20 21 21 20 19 19 19 20 20 20 20 19 19 19 18 18 18 17 17 17 17 17 16 16 16 16 16 16 16 16 16 16 16
21 21 23 23 24 25 25 25 24 23 21 21 21 21 20 19 19 19 20 20 20 19 19 19 19 18 18 17 17 17 17 17 17 16 16 16 16 16 16 16 16 16 16 15
19 21 22 22 24 24 24 24 24 24 23 22 21 20 20 19 19 19 19 19 19 19 19 19 19 18 18 18 17 17 17 17 17 17 17 16 16 16 16 16 16 15 15 15
18 19 19 20 22 22 22 23 23 22 21 21 20 19 18 18 17 17 18 19 19 18 18 18 19 19 18 18 18 18 17 17 17 17 16 16 16 16 16 15 15 15 15 15
18 18 16 18 21 21 20 22 22 21 19 19 19 18 18 17 17 17 18 18 18 18 18 19 19 19 18 18 18 18 17 17 17 16 16 16 16 16 15 15 15 15 15 15
18 18 17 17 19 20 21 21 21 19 18 18 18 18 17 17 17 16 17 18 18 18 18 18 18 18 18 18 17 17 17 17 17 16 16 16 16 16 15 15 15 14 14 14
17 16 17 17 19 19 19 20 21 19 17 18 18 17 17 17 16 15 16 17 18 18 18 18 18 18 18 17 17 17 17 16 16 16 16 16 15 15 15 15 14 14 13 13
17 16 16 17 18 18 19 19 20 18 17 17 18 17 17 16 16 16 16 16 17 17 17 18 17 17 17 17 17 16 16 16 16 16 15 15 15 14 14 14 13 13 13 12
16 15 16 15 17 17 17 18 17 16 17 17 17 17 17 15 15 15 15 16 16 16 16 16 16 16 16 16 16 16 15 15 15 15 15 14 14 13 13 13 12 12 12 11
15 15 14 15 15 15 16 16 16 17 16 16 16 16 16 15 14 14 14 15 14 15 15 15 15 15 15 15 15 15 14 14 14 14 13 13 13 12 12 12 12 11 11 11
15 15 14 14 14 14 15 15 16 16 16 16 16 16 16 15 14 14 13 13 13 13 14 14 14 14 14 13 14 14 13 13 13 13 12 12 12 11 11 11 11 10 10 10
14 14 14 14 14 14 14 14 14 15 15 15 15 15 14 14 13 13 13 13 13 13 13 13 13 13 13 13 13 13 12 13 12 12 11 11 11 11 10 10 10 10 9 9
13 13 13 13 13 13 13 13 14 14 14 14 14 13 13 13 13 12 12 12 12 12 12 12 12 12 12 12 12 12 12 12 12 11 10 10 10 10 10 9 9 8 8 8
Wind_Speed
5 3 7 10 10 10 10 12 15 15 11 2 2 3 3 5 7 8 8 9 10 10 8 9 10 11 12 12 12 12 13 11 10 8 8 7 6 4 4 5 8 10 10 10
3 9 14 12 11 12 13 14 13 12 7 1 1 2 1 3 7 10 11 10 11 10 8 9 9 10 11 12 12 12 13 14 11 9 7 6 6 4 5 4 6 9 10 9
11 10 9 12 14 14 16 12 10 8 5 5 4 4 4 3 0 3 7 8 10 13 14 12 10 10 11 12 13 13 13 12 11 10 8 7 5 4 3 4 4 5 8 8
10 13 14 14 15 13 13 14 10 5 3 4 2 1 5 4 3 1 3 5 7 9 11 11 11 10 11 11 11 11 11 12 11 11 11 11 8 6 6 6 5 5 7 8
8 7 9 14 17 13 12 12 6 2 1 3 5 2 6 4 3 3 3 5 7 9 11 12 11 11 9 9 10 10 10 10 10 11 12 11 8 6 5 5 7 6 4 6
12 11 8 11 15 12 9 3 5 6 6 2 4 1 5 3 4 4 3 3 5 8 10 9 8 8 7 7 8 9 10 9 10 11 11 11 10 9 9 8 7 6 4 4
10 13 12 11 12 11 3 3 4 5 5 4 4 2 7 6 5 3 3 4 5 7 9 10 9 8 8 8 9 9 9 9 9 10 10 10 11 11 11 10 9 7 5 4
7 10 9 8 11 10 7 10 8 5 5 5 3 4 6 7 5 2 0 4 6 8 9 10 10 9 9 9 9 9 9 8 9 10 9 8 9 8 7 8 8 8 6 5
9 8 8 8 9 10 7 7 11 8 3 1 3 4 6 4 4 4 3 3 4 7 8 8 8 7 7 8 8 9 9 8 8 8 8 8 8 8 8 8 7 6 5 6
11 7 10 7 3 4 10 8 7 6 5 2 3 4 5 6 5 2 1 3 3 5 6 7 7 7 6 6 7 8 9 9 8 8 8 8 7 8 8 7 8 7 7 7
10 8 8 5 2 4 2 4 5 6 7 7 4 6 7 10 7 5 5 5 6 7 7 7 6 6 6 6 7 7 8 9 8 8 7 7 7 7 7 7 7 8 7 7
9 8 6 8 6 2 4 5 7 5 4 5 5 6 4 8 6 5 6 6 7 8 8 7 7 6 6 6 6 7 8 9 8 8 7 7 7 7 7 7 7 7 7 7
6 7 3 6 7 6 4 3 5 6 5 4 4 5 1 2 3 4 6 6 8 10 9 8 7 7 7 7 7 7 7 8 7 7 7 7 7 7 7 7 7 7 7 7
4 5 7 8 6 3 1 1 4 6 4 2 5 6 4 6 7 6 6 7 8 9 10 10 8 7 7 7 7 8 7 8 9 8 8 7 7 7 7 7 7 7 6 6
5 4 4 3 2 0 1 1 1 3 6 5 6 7 9 11 11 8 7 8 10 10 11 11 10 9 8 8 7 7 8 8 9 9 9 8 7 6 6 6 6 6 6 6
5 3 3 4 6 5 3 3 2 0 1 2 2 2 3 4 4 4 6 9 10 11 11 11 11 11 11 11 10 9 8 8 8 9 9 8 8 8 7 7 7 8 8 7
3 4 3 2 4 5 3 3 0 2 3 2 3 3 4 5 3 3 4 6 7 9 10 11 11 11 11 11 11 11 10 8 8 8 8 8 8 8 7 8 8 9 8 8
4 3 3 2 4 2 7 3 5 9 9 7 6 4 6 7 5 4 4 4 5 6 7 8 8 9 8 8 9 9 9 9 10 9 8 8 8 9 9 9 9 9 9 9
5 6 4 4 2 4 5 4 2 6 6 5 7 7 7 6 6 6 6 5 4 4 3 3 4 5 6 8 9 10 9 9 9 9 9 9 10 10 10 11 10 10 10 11
5 6 5 4 4 4 4 6 2 8 3 3 4 6 5 4 3 0 3 4 4 5 5 4 4 5 5 6 8 10 9 10 9 9 9 9 9 11 11 11 11 10 11 12
4 4 3 4 4 3 4 6 4 4 4 2 3 5 5 4 4 4 3 4 4 5 6 6 6 6 5 6 9 10 10 9 9 10 11 10 10 11 12 11 11 12 13 13
2 2 1 2 3 4 5 4 4 4 2 2 3 4 7 8 8 7 5 5 5 7 7 8 8 7 6 6 10 11 10 9 10 12 12 12 11 11 12 13 12 12 13 14
2 3 3 3 4 2 3 3 2 3 3 1 2 5 9 9 8 7 6 6 6 7 7 7 9 9 8 7 9 13 11 12 13 14 14 13 13 12 12 13 12 11 10 10
2 1 2 2 1 2 4 5 5 4 3 2 4 6 8 9 8 8 7 7 7 7 8 8 10 11 10 9 10 11 12 12 15 16 14 13 14 13 12 10 9 9 9 10
2 1 1 1 1 3 5 5 4 5 6 6 6 6 8 10 9 9 9 8 8 8 8 9 10 12 11 11 12 11 11 14 15 15 14 13 12 13 12 11 9 8 6 8
2 3 4 4 3 3 1 1 4 5 5 6 8 7 7 9 11 11 10 9 9 10 10 11 12 13 12 12 12 11 11 13 15 14 13 11 11 11 11 12 11 15 12 13
Wind_Direction
230 193 233 237 228 231 259 277 283 282 276 286 230 188 179 168 153 154 164 166 165 169 168 161 162 160 160 165 164 164 161 164 162 158 155 154 159 159 159 161 160 155 155 152
261 246 238 240 251 256 264 273 278 285 300 348 72 46 198 173 172 173 175 176 170 161 158 162 163 164 164 167 166 168 168 169 170 166 162 159 156 163 166 165 157 160 159 156
220 242 239 238 250 257 267 258 260 271 316 10 60 4 330 319 6 165 167 169 170 171 170 171 172 171 168 169 173 177 175 171 169 159 147 139 125 120 138 156 165 172 163 158
242 248 252 255 257 250 261 257 255 277 347 321 40 249 284 293 336 145 177 172 179 177 172 172 173 174 176 177 173 174 174 171 167 160 159 159 161 169 180 173 172 172 165 157
243 240 237 246 253 251 247 255 254 280 85 20 5 107 282 324 313 296 257 197 181 182 180 178 178 176 174 173 174 173 170 170 169 167 166 166 167 170 160 156 161 166 163 158
251 266 255 247 264 258 254 288 20 46 67 14 284 187 278 271 258 298 288 212 182 181 178 175 168 159 162 165 167 167 169 173 172 170 169 169 169 165 158 163 167 168 163 160
273 273 264 259 270 280 256 98 23 353 3 261 269 193 246 259 263 256 246 202 192 178 167 164 163 164 165 164 165 165 169 173 173 172 174 174 173 169 171 171 171 167 164 167
233 271 254 233 215 221 217 147 161 200 227 259 297 231 258 272 285 299 165 165 168 172 171 169 170 166 166 168 169 166 170 171 171 172 173 171 169 168 173 173 169 170 174 175
205 250 262 259 242 188 192 189 174 149 170 171 269 281 297 299 334 4 50 98 165 175 170 165 161 161 166 168 173 172 169 167 169 167 161 161 164 166 170 168 166 165 166 171
184 242 282 282 300 218 179 171 108 126 159 219 263 249 239 249 240 223 150 159 172 153 151 152 156 157 159 159 162 167 169 169 167 162 163 163 163 166 165 162 163 162 167 161
174 193 279 339 255 228 162 143 130 134 152 153 208 258 221 209 208 188 191 178 163 153 148 152 157 151 146 144 150 154 158 156 157 159 157 155 160 160 157 161 164 161 159 156
181 163 232 260 270 202 156 164 141 149 214 164 167 254 249 189 185 178 187 179 158 155 152 147 150 145 143 147 151 156 158 156 158 157 152 152 152 151 151 154 156 151 149 157
141 130 160 324 340 6 65 96 129 129 117 135 150 247 261 179 185 190 178 168 152 151 150 146 148 152 156 156 156 156 158 157 154 150 149 149 148 149 150 153 152 152 151 151
113 111 151 183 211 249 335 50 108 106 123 182 196 203 217 207 205 199 178 159 154 154 158 157 159 158 158 160 161 160 160 159 158 153 151 153 154 155 154 152 149 149 145 141
79 108 135 161 203 91 351 322 136 140 170 183 219 196 204 200 197 189 173 158 164 164 165 166 167 166 163 161 161 161 161 161 161 157 159 160 156 151 147 147 143 137 130 126
53 95 67 20 20 37 22 348 335 105 132 159 146 248 229 173 149 152 170 170 168 171 172 172 169 170 172 172 170 166 163 162 157 160 163 162 155 152 153 146 132 119 111 106
44 85 85 330 351 38 343 299 248 61 24 137 158 212 130 112 124 180 173 165 168 173 172 174 175 175 178 176 172 170 169 162 158 161 159 157 155 153 148 140 126 118 114 107
123 96 121 111 56 230 249 304 96 85 52 59 86 95 107 117 105 63 66 114 144 158 166 172 172 172 175 171 166 160 159 159 158 158 158 152 145 138 129 123 120 116 111 107
145 135 118 119 155 271 313 352 55 105 57 39 91 95 97 112 77 38 23 57 102 117 125 144 162 166 165 165 161 152 152 153 152 154 151 149 145 138 130 126 123 117 112 104
64 102 119 129 156 214 272 316 352 101 76 354 97 111 123 110 92 255 2 49 71 77 87 107 132 133 146 159 150 143 145 142 143 143 138 134 133 130 127 125 119 113 110 107
35 41 114 152 184 232 287 318 29 110 193 247 118 128 127 127 158 149 102 77 80 85 82 84 101 121 132 138 131 130 131 134 132 123 117 114 115 116 117 114 113 113 110 105
135 106 125 139 169 233 322 28 92 175 181 102 108 120 121 124 124 117 103 83 72 74 75 82 91 90 90 110 125 125 126 124 117 111 108 105 105 109 110 109 108 110 112 109
97 167 174 174 198 242 21 89 106 118 105 86 111 127 128 128 128 125 115 103 91 85 84 88 97 91 80 87 117 120 119 117 112 106 102 100 96 97 104 109 111 109 109 111
327 23 104 80 55 39 40 52 45 64 91 85 120 131 129 127 127 121 115 106 98 89 90 94 96 94 86 82 94 106 112 113 112 108 104 100 98 94 88 90 97 105 109 113
260 24 93 146 188 59 37 33 41 63 74 79 92 107 120 124 125 122 116 109 103 93 88 92 96 97 94 93 93 96 106 110 107 104 101 99 98 98 90 80 72 87 88 117
212 179 175 205 197 150 188 344 57 78 84 99 106 100 104 116 121 118 113 108 105 100 96 94 92 93 92 92 92 92 101 110 111 109 108 106 104 102 102 100 83 60 75 86
Height
1485 1492 1496 1492 1490 1491 1491 1492 1491 1479 1465 1466 1471 1472 1470 1469 1470 1472 1474 1475 1477 1479 1482 1485 1487 1489 1492 1495 1497 1500 1503 1507 1511 1515 1519 1523 1526 1530 1534 1537 1539 1542 1543 1545
1489 1492 1483 1481 1482 1484 1486 1490 1487 1475 1463 1467 1473 1474 1471 1468 1468 1469 1471 1474 1476 1478 1481 1483 1485 1487 1489 1492 1495 1498 1501 1505 1509 1513 1517 1521 1524 1528 1532 1535 1538 1540 1542 1544
1489 1481 1475 1478 1481 1483 1483 1485 1481 1476 1469 1468 1474 1483 1478 1471 1469 1469 1470 1472 1474 1476 1478 1481 1483 1485 1488 1490 1492 1495 1499 1502 1507 1511 1516 1519 1523 1527 1530 1533 1535 1538 1540 1542
1480 1473 1474 1476 1476 1476 1484 1469 1468 1469 1479 1489 1482 1501 1486 1476 1473 1472 1471 1472 1474 1475 1477 1479 1481 1484 1486 1488 1491 1493 1497 1500 1504 1508 1512 1516 1519 1522 1526 1529 1533 1536 1538 1540
1477 1469 1471 1473 1469 1467 1470 1461 1463 1467 1478 1491 1489 1497 1493 1480 1478 1474 1471 1471 1471 1474 1476 1478 1480 1482 1484 1487 1489 1492 1495 1498 1502 1505 1509 1513 1517 1520 1524 1527 1531 1534 1536 1538
1468 1463 1464 1463 1458 1457 1457 1461 1468 1478 1490 1506 1497 1498 1497 1485 1479 1473 1469 1469 1470 1473 1475 1477 1480 1482 1483 1486 1488 1490 1493 1496 1499 1502 1506 1510 1514 1518 1521 1525 1528 1531 1534 1536
1472 1462 1456 1455 1460 1455 1458 1479 1501 1504 1514 1511 1495 1497 1494 1475 1470 1468 1467 1466 1470 1473 1474 1475 1478 1481 1482 1485 1486 1489 1491 1494 1497 1500 1503 1507 1511 1515 1519 1522 1525 1529 1531 1534
1482 1476 1454 1448 1453 1460 1459 1474 1501 1512 1516 1510 1496 1497 1485 1470 1465 1463 1464 1466 1469 1472 1474 1475 1477 1479 1481 1483 1485 1487 1489 1492 1494 1497 1501 1505 1509 1513 1516 1520 1523 1526 1529 1532
1474 1470 1445 1440 1439 1446 1457 1465 1469 1490 1498 1509 1503 1492 1478 1467 1463 1463 1465 1467 1470 1471 1473 1475 1476 1479 1480 1482 1484 1485 1488 1490 1493 1496 1499 1503 1506 1510 1514 1517 1521 1524 1527 1530
1456 1465 1448 1438 1435 1436 1441 1450 1473 1488 1503 1510 1504 1496 1490 1473 1466 1464 1465 1468 1471 1472 1473 1475 1477 1478 1480 1481 1483 1485 1487 1489 1492 1495 1498 1501 1504 1507 1511 1515 1518 1522 1525 1528
1446 1462 1454 1445 1444 1446 1445 1452 1464 1481 1487 1504 1510 1498 1468 1466 1463 1464 1466 1468 1471 1472 1473 1475 1477 1478 1479 1481 1482 1484 1486 1488 1491 1493 1496 1499 1502 1506 1509 1513 1516 1520 1524 1527
1440 1455 1464 1452 1439 1434 1441 1448 1461 1479 1484 1487 1495 1490 1459 1460 1461 1462 1464 1465 1467 1470 1472 1474 1477 1478 1479 1481 1482 1484 1486 1488 1490 1493 1496 1499 1502 1505 1508 1511 1515 1518 1522 1525
1437 1454 1469 1466 1457 1445 1446 1448 1453 1465 1478 1486 1493 1485 1461 1461 1462 1462 1462 1463 1464 1467 1470 1473 1476 1478 1480 1481 1483 1484 1486 1488 1491 1493 1496 1499 1502 1504 1507 1511 1514 1517 1521 1524
1431 1449 1462 1471 1465 1452 1450 1449 1451 1462 1479 1480 1477 1472 1465 1462 1461 1460 1460 1461 1463 1466 1469 1472 1475 1478 1480 1482 1483 1485 1487 1489 1491 1493 1496 1499 1501 1504 1507 1511 1513 1517 1520 1523
1433 1447 1446 1448 1445 1443 1446 1447 1448 1454 1461 1470 1466 1463 1459 1457 1457 1457 1458 1460 1463 1466 1469 1471 1474 1476 1478 1480 1483 1485 1487 1489 1491 1493 1496 1499 1502 1505 1508 1510 1513 1516 1519 1522
1439 1447 1447 1450 1444 1444 1448 1446 1446 1448 1450 1456 1458 1460 1452 1453 1455 1457 1459 1461 1463 1465 1467 1469 1471 1474 1476 1478 1481 1483 1486 1488 1491 1493 1496 1498 1501 1504 1507 1510 1512 1515 1518 1520
1445 1450 1459 1463 1452 1451 1460 1450 1448 1451 1451 1452 1459 1459 1453 1455 1457 1458 1459 1461 1463 1464 1466 1467 1469 1471 1473 1476 1478 1481 1484 1488 1490 1493 1495 1498 1501 1504 1507 1509 1512 1514 1516 1519
1446 1453 1463 1465 1462 1472 1461 1444 1444 1451 1455 1452 1454 1455 1454 1456 1458 1459 1460 1461 1462 1464 1465 1466 1467 1469 1472 1474 1477 1480 1483 1486 1489 1492 1494 1497 1500 1502 1505 1508 1510 1513 1516 1518
1439 1450 1462 1471 1472 1466 1454 1447 1447 1454 1462 1458 1458 1458 1458 1459 1459 1461 1462 1462 1461 1462 1464 1465 1467 1469 1471 1474 1476 1478 1482 1485 1488 1490 1493 1496 1498 1501 1503 1506 1509 1512 1514 1517
1441 1445 1459 1467 1470 1474 1461 1448 1445 1450 1467 1460 1458 1458 1459 1460 1465 1466 1464 1463 1462 1462 1463 1465 1466 1468 1470 1473 1474 1477 1480 1483 1485 1488 1491 1494 1497 1499 1502 1505 1508 1511 1513 1515
1454 1456 1461 1466 1468 1464 1454 1448 1446 1463 1468 1459 1458 1457 1458 1459 1463 1464 1464 1463 1463 1462 1463 1464 1465 1466 1469 1471 1473 1476 1479 1481 1484 1487 1490 1493 1496 1499 1502 1504 1507 1510 1512 1514
1459 1463 1464 1467 1470 1469 1452 1450 1456 1460 1457 1457 1457 1457 1457 1458 1460 1462 1463 1463 1463 1463 1463 1464 1465 1465 1467 1469 1471 1474 1477 1480 1483 1486 1489 1492 1495 1498 1501 1504 1507 1510 1512 1514
1457 1459 1461 1463 1466 1459 1454 1454 1455 1455 1456 1457 1457 1457 1458 1459 1460 1462 1463 1463 1464 1464 1464 1465 1465 1466 1467 1469 1471 1473 1477 1480 1482 1485 1489 1492 1495 1499 1502 1505 1508 1511 1513 1516
1456 1454 1457 1459 1458 1456 1455 1455 1455 1455 1455 1456 1456 1456 1457 1458 1459 1461 1462 1463 1464 1465 1465 1466 1467 1467 1469 1471 1473 1475 1478 1481 1483 1486 1489 1493 1496 1500 1503 1506 1509 1512 1515 1518
1455 1455 1457 1458 1457 1456 1456 1456 1456 1454 1455 1455 1455 1456 1456 1458 1459 1461 1462 1464 1465 1466 1467 1468 1468 1469 1471 1473 1476 1478 1480 1483 1485 1488 1492 1496 1499 1502 1505 1508 1512 1515 1518 1520
1454 1455 1457 1457 1455 1456 1457 1456 1455 1454 1454 1454 1455 1456 1457 1458 1459 1461 1463 1465 1467 1468 1469 1470 1471 1472 1474 1477 1479 1481 1484 1486 1489 1492 1495 1498 1502 1505 1508 1511 1514 1518 1521 1524